FW7771 Weather Reports


time (UTC)temp
C
wind
direction
speed
KPH
gust
KPH
rain 1hr
cm
rain 24hr
cm
rain mn
cm
humidity
%
barometer
mb
20260906184620 21 0 3.2 9.7 0.08 0.18 0.18 94 1018.6
20260906183113 22 196 1.6 8.0 0.08 0.18 0.18 94 1018.4
20260906181604 22 179 9.7 17.7 0.00 0.10 0.10 94 1018.6
20260906180122 22 153 9.7 19.3 0.00 0.10 0.10 94 1018.4
20260906174626 22 137 12.9 20.9 0.00 0.10 0.10 94 1018.4
20260906173107 22 148 9.7 19.3 0.00 0.10 0.10 95 1018.3
20260906171615 22 126 8.0 19.3 0.03 0.10 0.10 95 1018.5
20260906170119 22 140 12.9 20.9 0.10 0.10 0.10 95 1018.2
20260906164601 21 126 12.9 19.3 0.10 0.10 0.10 95 1018.1
20260906163105 21 118 8.0 17.7 0.10 0.10 0.10 95 1018.5
20260906161623 22 121 9.7 19.3 0.08 0.08 0.08 94 1018.3
20260906160104 21 122 8.0 14.5 0.00 0.00 0.00 93 1018.3
20260906154605 22 125 6.4 14.5 0.00 0.00 0.00 93 1018.4
20260906153119 22 136 8.0 17.7 0.00 0.00 0.00 93 1018.2
20260906151601 22 119 8.0 14.5 0.00 0.00 0.00 93 1018.3
20260906150110 22 138 6.4 17.7 0.00 0.00 0.00 93 1018.3
20260906144603 22 128 8.0 17.7 0.00 0.00 0.00 94 1018.0
20260906143101 22 133 9.7 19.3 0.00 0.00 0.00 94 1018.1
20260906141622 21 127 8.0 19.3 0.00 0.00 0.00 95 1018.2
20260906140104 21 113 9.7 17.7 0.00 0.00 0.00 95 1018.3
20260906134601 21 126 9.7 17.7 0.00 0.00 0.00 96 1017.9
20260906133110 21 117 11.3 20.9 0.00 0.00 0.00 96 1018.0
20260906131610 20 119 6.4 12.9 0.00 0.00 0.00 97 1018.0
20260906130105 20 119 8.0 14.5 0.00 0.00 0.00 97 1017.8
20260906124606 20 114 6.4 14.5 0.00 0.00 0.00 97 1017.8
20260906123109 20 109 3.2 12.9 0.00 0.00 0.00 96 1017.8
20260906121614 20 103 4.8 11.3 0.00 0.00 0.00 96 1017.6
20260906120120 19 113 4.8 11.3 0.00 0.00 0.00 96 1017.6
20260906114600 20 110 4.8 11.3 0.00 0.00 0.00 96 1017.6
20260906113103 20 107 4.8 12.9 0.00 0.00 0.00 96 1017.2
20260906111600 20 115 4.8 12.9 0.00 0.00 0.00 96 1017.6
20260906110059 20 115 4.8 11.3 0.00 0.00 0.00 96 1017.6
20260906104604 20 118 3.2 9.7 0.00 0.00 0.00 96 1017.7
20260906103109 19 107 1.6 4.8 0.00 0.00 0.00 96 1017.7
20260906101620 19 106 1.6 6.4 0.00 0.00 0.00 96 1017.6
20260906094606 20 108 3.2 9.7 0.00 0.00 0.00 96 1017.0
20260906093100 20 113 3.2 6.4 0.00 0.00 0.00 96 1016.9
20260906091606 20 113 1.6 4.8 0.00 0.00 0.00 96 1017.0
20260906090107 20 113 1.6 4.8 0.00 0.00 0.00 96 1016.8
20260906084605 20 113 1.6 4.8 0.00 0.00 0.00 96 1016.7
20260906083107 20 0 1.6 4.8 0.00 0.00 0.00 96 1016.8
20260906081606 20 113 3.2 6.4 0.00 0.00 0.00 96 1016.8
20260906080103 20 115 3.2 9.7 0.00 0.00 0.00 95 1016.6
20260906074604 20 114 3.2 11.3 0.00 0.00 0.00 95 1016.5
20260906073102 20 111 4.8 11.3 0.00 0.00 0.00 95 1016.8
20260906071605 21 106 4.8 11.3 0.00 0.00 0.00 95 1016.8
20260906070104 21 108 4.8 12.9 0.00 0.00 0.00 95 1016.9
20260906064603 21 101 4.8 14.5 0.00 0.00 0.00 95 1016.8
20260906063104 21 105 8.0 12.9 0.00 0.00 0.00 95 1016.6
20260906061605 21 94 4.8 12.9 0.00 0.00 0.00 95 1016.9
20260906060136 21 111 6.4 12.9 0.00 0.00 0.00 95 1017.1
20260906054616 21 128 4.8 12.9 0.00 0.00 0.00 95 1017.1
20260906053101 21 121 6.4 14.5 0.00 0.00 0.00 95 1016.9
20260906051600 21 114 4.8 12.9 0.00 0.00 0.00 95 1017.0
20260906050104 21 94 4.8 12.9 0.00 0.00 0.00 94 1017.0
20260906044601 21 113 8.0 17.7 0.00 0.00 0.00 95 1017.0
20260906043058 21 90 4.8 11.3 0.00 0.00 0.00 94 1016.9
20260906041602 21 99 6.4 12.9 0.00 0.00 0.00 94 1017.0
20260906040106 22 98 6.4 14.5 0.00 0.00 0.00 94 1016.7
20260906034606 22 109 6.4 12.9 0.00 0.00 0.00 93 1016.7
20260906033100 22 99 6.4 14.5 0.00 0.00 0.00 93 1016.6
20260906031604 22 107 6.4 14.5 0.00 0.00 0.00 93 1016.7
20260906024618 22 105 4.8 12.9 0.00 0.00 0.00 93 1017.0
20260906023104 22 135 1.6 6.4 0.00 0.00 0.00 93 1017.0
20260906021606 22 137 3.2 6.4 0.00 0.00 0.00 93 1017.0
20260906020107 22 139 1.6 4.8 0.00 0.00 0.00 93 1016.7
20260906014607 22 139 1.6 4.8 0.00 0.00 0.00 93 1016.5
20260906013101 23 139 1.6 3.2 0.00 0.00 0.00 92 1016.1
20260906011607 23 139 1.6 3.2 0.00 0.00 0.00 91 1016.0
20260906010145 23 140 3.2 8.0 0.00 0.00 0.00 89 1015.8
20260906004618 24 144 6.4 16.1 0.00 0.00 0.00 88 1015.7
20260906003104 25 142 8.0 14.5 0.00 0.00 0.00 88 1015.8
20260906001607 25 143 6.4 12.9 0.00 0.00 0.00 87 1015.6
20260905234606 26 131 6.4 14.5 0.00 0.00 0.00 86 1015.4
20260905233102 26 132 6.4 14.5 0.00 0.00 0.00 86 1015.4
20260905231609 26 137 6.4 14.5 0.00 0.00 0.00 85 1015.5
20260905230106 26 140 9.7 16.1 0.00 0.00 0.00 85 1015.3
20260905224617 26 132 6.4 16.1 0.00 0.00 0.00 85 1015.0
20260905223108 27 125 6.4 19.3 0.00 0.00 0.00 84 1014.9
20260905221602 27 109 9.7 20.9 0.00 0.00 0.00 84 1014.8
20260905220104 27 107 11.3 17.7 0.00 0.00 0.00 83 1014.7
20260905214604 27 116 8.0 17.7 0.00 0.00 0.00 85 1014.9
20260905213101 27 85 8.0 19.3 0.00 0.00 0.00 85 1014.9
20260905211613 27 98 11.3 22.5 0.00 0.00 0.00 83 1015.0
20260905210120 27 100 9.7 24.1 0.00 0.00 0.00 84 1014.9
20260905204602 26 82 12.9 24.1 0.00 0.00 0.00 85 1015.0
20260905203115 26 123 12.9 22.5 0.00 0.00 0.00 86 1015.2
20260905201605 26 84 12.9 27.4 0.00 0.00 0.00 85 1015.0
20260905200130 26 112 12.9 22.5 0.00 0.00 0.00 87 1015.2
20260905194601 25 94 11.3 22.5 0.00 0.00 0.00 88 1015.4
20260905193123 25 101 9.7 24.1 0.00 0.00 0.00 89 1015.4
20260905191604 24 111 11.3 20.9 0.00 0.00 0.00 89 1015.7
20260905190105 24 73 8.0 17.7 0.00 0.00 0.00 89 1015.9